Temperature
23 23 23 23 27 29 27 28 28 28 29 27 27 27 27 27 26 24 20 19 20 19 19 20 19 19 19 19 19 19 19 19 19 19 19 19 19 19 19 19 19 19 19 19 19 19 19 19 19
23 23 23 26 29 28 27 28 28 28 28 27 26 26 26 25 22 20 19 19 19 19 19 19 19 19 19 19 19 19 19 19 19 19 19 19 19 19 19 19 19 19 19 19 19 19 19 19 19
24 24 25 29 29 28 27 28 28 28 27 27 27 26 25 24 21 20 19 19 19 19 19 19 20 19 19 19 19 19 19 19 19 19 19 19 19 19 19 19 19 19 19 19 19 19 19 19 19
23 24 27 29 28 28 28 29 28 28 27 27 27 26 24 21 21 20 19 19 19 19 19 19 20 20 20 20 19 19 19 19 19 19 19 19 19 19 19 19 19 19 19 18 18 18 18 18 18
24 27 29 28 28 28 28 28 28 29 28 27 27 26 24 21 20 20 20 19 19 19 19 19 20 20 20 20 20 19 19 19 19 19 19 19 19 19 19 19 19 19 19 19 18 18 18 18 18
26 29 28 27 27 28 28 28 28 28 27 27 26 26 23 21 20 20 20 19 20 19 19 19 20 20 20 20 20 19 19 19 19 19 19 19 19 19 18 18 19 19 19 19 18 18 18 18 18
27 28 28 27 27 27 27 27 27 28 27 25 25 26 23 21 20 20 19 19 19 19 19 18 19 19 20 19 19 19 19 19 19 19 19 19 19 18 18 18 18 18 18 18 18 18 18 18 18
26 29 27 27 27 26 26 26 25 25 25 23 23 25 24 21 20 19 19 19 19 19 19 19 18 18 18 18 19 19 19 19 19 19 19 19 19 18 18 18 18 18 18 18 18 18 18 18 18
26 28 27 26 26 25 24 25 24 23 23 22 21 21 21 20 20 19 19 19 19 19 19 19 19 18 18 18 18 19 19 19 19 18 19 19 18 18 18 17 18 18 18 18 18 18 18 18 18
28 27 26 25 25 24 22 22 22 23 21 21 20 19 19 19 19 19 19 19 19 19 19 19 18 18 18 18 18 18 18 18 18 18 18 18 18 18 17 17 18 18 18 18 18 18 18 18 17
27 26 26 25 24 24 22 20 20 21 19 17 18 18 18 18 18 18 17 18 18 18 18 18 18 18 18 18 18 18 18 18 18 18 18 18 18 17 17 17 17 17 18 17 18 18 17 17 17
26 24 24 24 23 23 22 21 18 17 16 16 16 17 17 17 16 16 16 17 17 17 18 18 18 18 18 18 18 18 18 18 18 18 18 18 18 18 18 17 17 17 17 17 17 17 17 17 18
26 23 22 21 20 20 19 19 17 16 15 16 16 16 16 16 16 16 16 16 17 17 17 18 18 18 18 18 18 18 18 18 18 18 18 18 18 18 18 17 17 17 17 17 17 17 18 18 18
25 23 22 22 21 20 19 18 17 15 15 16 16 16 15 15 15 16 16 16 16 16 17 17 18 18 18 18 18 18 18 18 18 18 18 18 18 18 18 17 17 17 17 17 17 17 17 18 18
24 25 23 22 22 21 21 18 16 15 15 16 16 15 15 15 15 15 15 15 15 16 16 17 17 18 18 18 18 18 18 18 18 18 18 18 18 18 18 17 17 17 17 17 17 18 17 17 18
26 26 24 21 21 21 22 17 15 15 15 15 15 16 16 15 15 15 14 15 15 15 16 16 17 17 18 18 18 18 18 18 18 18 18 18 18 18 18 17 17 17 17 17 17 17 17 17 18
26 26 24 22 20 21 20 16 16 15 16 16 15 16 16 16 15 15 14 14 14 15 15 16 16 17 17 18 18 18 18 18 18 18 18 18 18 18 18 18 17 17 17 17 17 17 17 18 18
25 25 24 21 20 20 18 16 16 15 15 16 16 16 16 15 15 14 14 14 14 14 14 15 15 16 16 17 17 18 18 18 18 18 18 18 18 18 18 18 18 17 17 17 17 17 17 17 17
24 24 23 20 19 19 17 17 17 16 16 16 16 16 15 15 15 14 14 14 14 14 14 14 14 15 15 16 17 17 17 18 18 18 18 18 18 18 18 18 18 17 17 17 17 17 17 17 17
23 23 22 19 19 19 17 17 17 16 16 15 15 15 15 15 14 14 14 13 13 13 13 13 13 14 14 15 15 16 16 17 17 17 17 17 17 17 17 17 18 17 17 17 17 17 17 17 17
22 22 21 19 18 19 18 17 18 17 17 16 15 15 15 14 14 13 13 13 13 12 12 13 13 13 13 14 14 15 15 16 16 16 16 17 17 17 17 17 17 17 17 17 17 17 17 17 17
21 20 19 19 20 19 19 19 17 17 17 16 15 15 14 13 13 13 12 12 12 12 12 12 12 12 13 13 14 14 14 15 15 15 16 16 17 17 17 17 17 17 17 17 17 17 17 16 16
20 19 19 20 20 20 19 20 18 17 16 16 15 14 14 13 13 12 12 12 12 12 12 12 12 12 13 13 13 13 14 14 14 15 15 16 16 16 16 16 16 16 16 16 16 16 16 16 16
19 19 19 20 20 19 18 18 16 16 15 15 15 14 14 13 12 12 12 12 12 12 12 12 12 12 13 13 13 13 13 14 14 14 15 15 15 16 16 16 16 16 16 16 16 16 16 16 16
20 20 21 20 20 19 17 17 16 16 15 15 15 14 14 13 12 12 12 11 11 11 12 12 12 12 12 13 13 13 13 13 14 14 14 15 15 15 15 15 16 16 16 16 16 16 16 16 16
19 20 21 21 21 18 17 17 16 16 15 15 15 14 14 13 12 12 11 11 11 11 11 12 12 12 12 12 12 13 13 13 13 13 14 14 14 14 15 15 15 15 15 15 16 16 16 16 15
19 19 19 20 19 19 18 17 16 16 16 15 15 14 14 13 13 12 12 12 11 11 11 11 11 11 12 12 12 13 13 13 13 13 13 13 14 14 14 14 14 15 15 15 15 15 15 15 15
18 18 19 20 19 19 17 17 16 16 16 16 15 15 14 13 13 12 12 12 11 11 11 11 11 11 11 12 12 12 12 13 13 13 13 13 13 13 13 14 14 14 14 14 14 14 15 15 15
18 18 18 18 18 19 17 16 16 15 15 15 15 15 14 14 13 13 12 12 12 11 11 11 11 11 11 11 12 12 12 12 12 13 13 13 13 13 13 13 13 13 13 13 14 14 14 14 14
17 17 18 19 18 17 17 16 16 16 15 15 15 15 14 14 14 13 13 12 12 12 11 11 11 11 11 11 11 11 12 12 12 12 12 13 13 13 13 13 13 13 13 13 13 13 13 13 13
Wind_Speed
7 6 4 3 2 7 12 8 6 6 5 6 5 3 3 4 3 3 5 12 14 16 16 17 15 14 13 12 12 11 10 10 10 10 9 9 9 8 7 6 5 5 5 4 4 5 5 5 5
5 5 3 2 6 11 11 7 8 8 6 4 4 4 4 6 6 5 8 12 15 15 15 16 16 14 13 12 12 11 11 10 10 9 9 9 8 7 7 6 5 4 4 4 4 4 4 4 5
6 4 2 3 8 10 9 6 7 7 6 5 5 6 5 5 5 5 9 14 15 14 13 15 15 14 13 12 11 11 10 10 10 9 9 9 8 8 7 6 5 4 4 3 3 3 4 4 4
3 3 1 5 10 7 5 4 3 4 6 8 6 6 6 6 4 8 13 15 14 13 12 14 14 13 13 12 11 10 10 10 9 9 9 9 9 8 7 6 6 5 4 3 3 3 4 4 4
3 2 4 6 7 5 4 4 2 5 7 9 9 8 8 8 8 12 13 13 13 12 12 13 13 12 12 11 11 11 11 10 10 9 9 9 9 8 7 7 6 5 4 3 3 3 3 4 4
1 1 4 6 7 6 6 4 3 6 8 9 8 8 7 7 8 10 10 10 10 10 10 12 12 11 11 11 11 11 11 11 11 10 10 9 9 8 8 7 6 5 4 4 4 3 4 4 4
1 2 4 5 6 7 7 6 8 8 10 11 9 7 6 8 7 7 7 7 7 8 8 8 11 12 12 10 10 11 11 11 11 11 11 10 9 9 9 8 7 6 5 5 4 4 5 5 4
2 2 5 4 5 7 7 7 8 11 10 10 10 8 6 7 7 6 5 4 5 6 7 8 8 9 10 12 13 12 12 12 12 12 12 11 10 10 10 10 8 7 6 5 5 5 6 6 5
2 2 4 3 4 6 8 8 8 9 12 14 13 12 8 9 7 6 4 3 2 4 5 6 7 7 8 8 9 12 13 13 13 13 13 12 12 12 11 9 9 7 6 6 6 6 6 7 7
2 3 6 6 6 8 13 12 8 8 14 14 15 14 11 9 8 7 5 4 2 2 4 6 7 8 9 8 8 9 11 12 13 12 13 13 10 8 7 11 9 7 7 7 6 6 8 9 8
5 6 8 8 9 9 10 15 16 8 12 11 11 11 11 12 12 11 10 9 8 6 5 6 7 9 9 8 9 8 8 9 11 12 12 11 10 8 8 8 10 10 10 10 9 10 9 8 5
8 12 8 7 7 8 9 8 13 19 11 10 11 12 13 14 14 13 12 11 11 10 10 9 9 8 9 10 9 9 8 8 9 11 13 10 7 8 8 7 8 8 8 7 8 7 7 7 8
10 10 15 17 20 19 19 17 14 15 12 12 14 15 15 14 13 12 12 11 11 11 11 11 10 9 9 8 8 9 9 9 10 9 10 11 8 8 8 8 7 8 8 8 8 8 8 8 8
10 13 12 11 11 11 18 15 9 12 11 13 15 15 14 14 14 13 13 12 12 11 11 10 10 9 9 8 8 8 9 10 10 10 12 12 10 9 7 8 8 8 8 8 8 9 7 8 7
13 13 11 8 6 6 7 13 11 11 10 13 14 13 13 13 13 13 13 12 11 11 11 10 9 9 9 9 8 8 9 10 9 10 12 12 12 11 10 9 8 9 10 10 9 9 8 7 7
6 6 4 7 5 3 1 7 10 9 10 12 13 12 12 12 13 13 13 12 11 11 11 10 9 9 9 8 8 7 8 9 9 10 10 12 13 14 11 9 9 10 9 8 7 8 8 9 8
5 4 2 5 9 4 7 8 8 9 11 12 12 12 12 13 14 14 13 13 12 11 10 10 10 9 9 8 7 7 8 8 9 10 10 12 13 14 11 9 9 10 8 8 8 9 9 9 8
3 3 0 4 7 9 11 10 8 10 12 12 12 13 13 14 15 14 14 13 12 11 10 10 9 9 9 7 7 6 6 6 7 9 11 12 12 13 11 8 9 9 8 8 8 9 9 8 7
3 4 0 5 4 6 10 10 8 10 12 13 14 14 14 15 15 14 14 13 12 11 11 11 11 10 9 7 7 6 6 6 6 7 10 12 13 12 10 8 9 8 8 9 9 8 9 8 8
2 3 3 6 5 4 8 8 7 9 12 13 14 14 15 16 16 15 15 14 13 12 12 11 11 11 10 7 7 6 7 7 7 6 8 11 12 12 10 10 9 9 8 9 8 7 6 7 7
1 1 2 5 6 6 5 5 5 7 10 13 14 14 15 15 16 17 16 15 14 13 12 11 11 11 10 9 7 7 6 6 5 6 7 8 11 12 11 11 10 10 9 8 9 9 8 7 6
1 3 1 6 7 3 3 3 6 7 11 15 15 15 15 16 16 16 16 16 14 13 12 11 10 10 10 9 8 8 7 6 6 6 5 7 8 10 12 11 11 10 9 10 10 10 8 7 6
3 2 3 6 5 4 1 4 4 8 13 16 16 16 15 15 16 15 15 14 14 13 12 11 11 10 10 9 8 8 7 6 6 5 5 4 5 6 8 10 10 10 10 11 11 11 11 9 8
0 4 6 6 6 3 3 3 4 8 13 15 14 15 15 15 15 15 14 14 13 13 12 12 12 11 11 10 9 8 8 7 6 5 3 2 1 2 4 6 8 9 9 11 11 11 12 10 10
2 5 4 5 4 2 2 1 4 8 10 11 12 13 13 13 14 15 16 16 15 14 13 13 13 12 12 11 10 10 9 7 6 5 4 3 1 0 2 3 5 6 7 8 9 10 11 11 11
2 4 4 3 0 3 2 1 3 6 7 8 9 10 12 13 13 14 14 14 13 13 13 13 13 12 12 12 11 10 10 7 6 6 5 4 3 2 1 1 2 3 4 5 7 7 8 9 11
1 2 3 2 1 2 3 2 3 4 7 9 10 11 12 12 12 13 13 13 13 13 13 13 13 13 12 12 12 11 11 10 9 8 6 5 4 4 4 2 2 1 1 3 4 5 6 6 8
5 2 2 2 2 1 2 1 2 6 8 9 10 11 12 12 12 12 12 12 12 11 11 11 12 12 12 12 11 9 11 11 10 9 9 8 7 6 5 4 4 3 2 1 1 2 3 5 5
2 1 2 1 2 2 1 2 2 4 6 7 8 9 10 11 11 11 10 9 10 11 11 11 11 12 12 12 11 11 11 11 11 10 10 9 8 7 7 6 5 4 3 2 1 1 3 4 5
4 3 2 2 1 1 1 3 3 1 3 5 6 7 8 9 10 10 10 10 10 10 10 11 11 11 11 11 11 11 11 12 12 12 11 10 10 9 8 7 7 6 5 4 3 1 1 3 4
Wind_Direction
198 180 187 216 172 92 81 73 68 66 54 52 53 48 32 30 358 51 115 152 144 146 146 150 151 148 146 145 144 141 140 139 141 143 145 149 152 153 153 152 155 158 161 165 162 159 158 154 150
164 164 214 233 104 94 81 65 65 59 65 62 56 46 56 58 43 85 134 147 149 147 150 152 150 151 151 150 148 148 147 146 146 147 148 150 151 152 153 153 153 156 160 164 164 163 160 155 148
169 209 265 96 84 82 82 61 66 74 47 27 45 45 42 44 65 114 137 150 151 149 151 146 153 153 155 155 154 154 152 152 154 155 154 155 155 155 157 155 153 154 158 161 165 167 161 155 149
201 219 206 102 91 74 59 56 65 75 54 40 40 62 65 44 57 117 139 151 150 152 153 149 158 158 161 162 161 161 159 160 162 162 160 160 160 159 158 157 154 154 158 157 158 165 162 160 155
237 230 122 105 90 72 49 31 56 53 51 42 43 66 71 55 81 122 143 152 155 156 157 154 161 164 167 168 169 169 168 170 172 171 168 168 166 165 164 162 157 157 160 156 150 153 157 158 152
238 181 122 102 90 74 53 53 74 62 60 45 41 64 71 78 100 126 142 158 162 161 163 160 164 174 178 180 180 180 180 181 180 178 175 174 174 171 167 163 161 163 160 153 144 141 145 145 147
341 115 117 111 103 77 45 52 50 60 56 37 21 63 93 92 97 122 139 155 166 170 174 177 177 183 189 195 196 194 193 191 187 185 183 183 183 179 173 169 167 166 162 156 148 140 137 135 136
4 130 129 116 105 70 40 68 50 42 57 38 25 41 77 98 112 116 121 141 175 190 195 199 202 204 200 198 200 206 206 201 196 193 190 189 189 189 183 183 171 173 169 162 154 145 136 132 131
298 159 112 88 87 64 40 66 52 56 64 54 44 39 59 93 103 103 103 117 181 224 230 230 229 229 236 233 206 208 215 212 207 202 197 200 205 198 192 185 161 179 178 171 162 155 147 149 144
21 93 74 67 80 89 62 54 34 62 50 36 36 44 58 72 69 62 48 35 9 292 260 253 251 247 244 244 238 228 224 215 216 214 203 209 214 208 208 144 173 188 187 181 175 166 175 205 181
57 71 88 82 93 97 84 62 40 60 43 20 21 36 49 54 51 44 35 25 14 2 345 316 287 265 257 248 248 242 237 229 228 227 218 215 213 208 209 191 185 195 197 198 173 197 204 207 197
87 61 73 75 82 79 76 81 59 48 42 34 46 48 48 46 41 36 29 22 13 10 5 353 335 306 278 261 255 252 248 241 234 230 230 221 218 221 212 211 207 198 201 206 208 216 204 211 202
100 94 83 84 84 85 87 83 75 45 37 43 51 51 47 44 40 35 30 23 14 8 360 354 347 338 320 297 273 263 256 252 248 241 241 229 226 227 219 217 210 215 210 200 215 220 209 214 213
104 110 102 93 94 87 83 71 59 30 31 44 46 45 42 38 32 28 23 17 10 3 355 348 346 346 334 314 291 274 269 260 257 250 245 241 232 236 230 228 215 218 216 214 215 217 209 214 212
128 120 101 65 94 123 97 59 38 23 33 43 41 39 36 32 27 22 15 8 4 358 351 348 341 344 336 324 307 290 278 271 262 254 252 247 240 238 235 234 224 218 215 216 217 214 213 214 209
172 180 135 54 34 34 165 70 36 25 36 39 32 28 25 24 19 13 7 2 357 353 349 346 343 340 333 321 303 292 280 272 265 259 258 255 246 239 235 234 233 226 219 217 211 217 209 211 216
210 236 158 86 31 54 88 86 50 35 37 35 25 18 14 11 10 6 359 356 351 347 345 343 342 337 329 320 301 287 278 266 260 254 252 254 250 244 234 231 233 228 219 218 214 213 214 217 219
292 280 165 86 60 84 95 95 66 44 36 29 20 13 8 4 1 358 353 349 345 343 342 341 339 336 330 322 312 294 281 273 263 253 245 244 247 247 241 233 230 226 218 217 217 212 214 225 224
320 288 143 96 106 88 99 95 69 44 32 22 14 8 3 357 353 354 350 347 342 341 340 339 338 338 334 328 323 312 300 289 271 260 252 241 239 239 236 234 234 223 217 216 214 209 211 218 225
278 241 142 112 108 116 118 99 72 43 29 19 8 3 359 353 352 353 350 348 343 341 339 335 337 336 334 327 315 299 295 283 275 265 255 244 236 231 229 226 227 221 213 210 207 201 207 212 218
60 300 173 151 129 136 157 135 66 40 27 20 13 5 1 357 352 351 350 347 344 343 340 335 335 333 334 330 321 314 304 289 277 267 256 244 233 226 225 226 223 218 210 209 202 197 204 207 213
160 47 192 178 194 160 244 219 60 17 16 14 9 5 2 358 354 352 349 348 346 342 337 335 335 336 337 333 331 326 314 305 298 288 269 252 236 226 220 223 222 214 211 209 206 199 199 195 201
13 348 219 198 202 176 10 274 57 15 6 4 3 2 1 358 356 354 352 349 349 345 341 341 340 341 340 337 337 330 323 311 304 300 284 265 241 228 221 220 220 216 214 214 211 202 200 199 197
246 146 139 173 205 206 12 317 35 15 354 351 357 0 2 360 358 358 359 358 355 353 354 354 353 352 349 347 349 347 339 333 331 332 320 296 254 228 221 218 218 219 218 216 211 207 205 205 204
230 225 205 196 206 114 41 5 45 10 356 352 353 357 2 3 2 3 4 4 2 0 1 1 2 1 0 0 1 355 349 348 354 353 351 359 4 358 207 210 218 218 218 216 211 209 209 207 206
21 301 305 301 283 127 157 60 58 14 1 1 3 3 4 6 6 6 5 5 6 6 5 7 5 6 5 5 3 3 1 358 6 11 12 22 20 13 37 144 199 210 212 213 212 214 211 209 210
343 43 348 338 102 156 125 116 130 21 15 13 12 10 10 9 8 7 6 7 9 10 8 8 8 10 9 10 10 10 11 14 16 19 23 26 30 35 44 61 81 124 190 210 213 213 209 207 210
31 6 259 271 266 190 147 133 11 9 8 8 10 8 8 8 9 10 9 5 7 9 8 10 12 11 9 12 15 15 16 21 21 25 29 28 29 34 44 52 64 70 85 133 189 198 196 195 194
32 64 43 68 335 309 171 101 46 357 354 355 2 7 7 4 3 5 6 3 5 9 13 14 16 15 12 13 19 23 24 26 28 30 29 28 30 31 37 38 46 54 60 67 86 147 176 182 174
38 28 314 314 94 22 101 113 108 341 339 344 356 4 4 360 359 3 5 6 10 12 13 18 19 18 16 16 23 27 28 30 32 33 31 32 35 34 37 43 42 41 43 48 50 60 174 173 163
Height
1524 1523 1523 1525 1524 1523 1531 1529 1524 1524 1524 1527 1527 1527 1527 1528 1531 1539 1540 1541 1544 1546 1548 1550 1552 1553 1555 1556 1558 1559 1560 1561 1562 1563 1563 1564 1565 1565 1566 1566 1567 1567 1567 1567 1568 1568 1568 1569 1569
1525 1524 1526 1526 1522 1533 1536 1527 1526 1526 1528 1529 1529 1530 1530 1533 1537 1539 1540 1542 1546 1548 1550 1552 1553 1555 1556 1558 1559 1560 1561 1562 1562 1563 1564 1564 1565 1566 1566 1567 1567 1567 1567 1568 1568 1568 1569 1569 1570
1526 1525 1529 1523 1526 1533 1535 1529 1528 1530 1531 1530 1531 1532 1534 1538 1540 1541 1542 1544 1548 1550 1552 1553 1554 1556 1557 1559 1560 1561 1562 1562 1563 1564 1564 1565 1565 1566 1566 1567 1567 1567 1567 1568 1568 1569 1569 1570 1570
1528 1529 1528 1525 1532 1531 1530 1529 1530 1530 1532 1533 1532 1534 1538 1542 1543 1543 1543 1547 1550 1552 1554 1554 1556 1557 1558 1559 1560 1561 1562 1563 1563 1564 1564 1565 1565 1566 1566 1567 1567 1567 1567 1568 1568 1569 1569 1570 1570
1528 1528 1526 1531 1532 1531 1531 1531 1532 1531 1533 1535 1535 1537 1542 1545 1544 1545 1547 1549 1552 1554 1555 1556 1557 1558 1559 1560 1561 1562 1562 1563 1563 1564 1564 1565 1565 1566 1566 1566 1567 1567 1567 1567 1568 1568 1569 1569 1571
1530 1526 1531 1537 1535 1533 1532 1533 1533 1534 1536 1538 1538 1540 1545 1548 1548 1549 1550 1552 1555 1556 1557 1557 1557 1558 1559 1560 1561 1562 1562 1562 1563 1563 1564 1564 1565 1566 1566 1566 1566 1566 1566 1567 1567 1568 1568 1569 1570
1530 1527 1532 1535 1537 1536 1537 1536 1536 1537 1539 1542 1542 1542 1548 1550 1551 1551 1553 1554 1556 1557 1558 1559 1559 1558 1559 1560 1560 1561 1561 1562 1562 1563 1563 1564 1564 1565 1565 1565 1565 1566 1566 1566 1567 1567 1568 1569 1570
1530 1529 1533 1535 1538 1541 1540 1540 1542 1542 1545 1547 1546 1545 1549 1553 1552 1553 1554 1555 1556 1558 1559 1559 1560 1560 1560 1559 1559 1560 1560 1561 1561 1562 1562 1563 1563 1564 1564 1564 1564 1565 1565 1566 1566 1567 1568 1568 1569
1531 1531 1536 1538 1540 1544 1544 1543 1546 1549 1549 1551 1552 1552 1553 1554 1554 1555 1555 1556 1556 1557 1558 1559 1560 1559 1559 1560 1559 1558 1559 1559 1560 1560 1561 1561 1563 1563 1563 1563 1563 1564 1564 1565 1566 1566 1567 1568 1569
1531 1533 1540 1541 1542 1546 1548 1548 1550 1551 1552 1554 1555 1556 1555 1555 1556 1556 1556 1557 1557 1558 1558 1558 1558 1558 1558 1557 1557 1557 1557 1557 1557 1559 1559 1560 1562 1563 1563 1562 1562 1563 1563 1564 1565 1566 1567 1569 1571
1535 1538 1542 1544 1545 1547 1549 1554 1556 1554 1559 1562 1561 1560 1558 1557 1556 1556 1556 1556 1556 1556 1556 1556 1556 1556 1556 1556 1555 1555 1555 1555 1555 1556 1557 1558 1559 1560 1561 1561 1561 1562 1562 1565 1564 1565 1568 1570 1571
1539 1545 1544 1547 1548 1549 1551 1556 1561 1563 1568 1567 1564 1562 1560 1559 1557 1557 1556 1555 1554 1554 1553 1553 1553 1553 1553 1554 1553 1552 1552 1552 1553 1553 1554 1555 1556 1558 1560 1560 1561 1562 1562 1563 1565 1566 1568 1569 1570
1541 1549 1551 1553 1553 1555 1557 1561 1565 1570 1570 1569 1566 1564 1562 1561 1560 1558 1557 1555 1554 1552 1552 1551 1550 1550 1550 1550 1550 1550 1550 1550 1550 1550 1551 1552 1553 1554 1557 1558 1558 1560 1561 1561 1562 1564 1566 1567 1569
1545 1549 1552 1555 1556 1559 1561 1565 1568 1574 1573 1570 1568 1566 1565 1563 1562 1560 1558 1556 1554 1552 1550 1548 1548 1547 1546 1546 1546 1546 1547 1547 1547 1547 1548 1549 1550 1551 1553 1555 1556 1557 1558 1560 1561 1562 1564 1565 1567
1546 1548 1552 1556 1557 1559 1559 1569 1577 1577 1575 1572 1570 1568 1567 1565 1563 1561 1559 1556 1554 1551 1549 1547 1546 1544 1544 1543 1543 1542 1542 1542 1543 1544 1544 1545 1546 1548 1549 1551 1553 1554 1555 1557 1558 1561 1562 1563 1565
1543 1544 1551 1560 1559 1560 1560 1577 1581 1579 1576 1573 1572 1570 1568 1566 1564 1562 1559 1556 1553 1551 1548 1546 1544 1542 1540 1539 1539 1538 1537 1538 1538 1539 1540 1541 1543 1544 1545 1547 1549 1551 1552 1554 1555 1557 1559 1561 1563
1542 1545 1551 1560 1563 1561 1563 1579 1582 1580 1577 1575 1573 1571 1568 1566 1564 1561 1558 1555 1552 1549 1547 1544 1541 1539 1537 1536 1535 1534 1533 1533 1533 1534 1535 1536 1538 1540 1541 1542 1544 1547 1548 1550 1552 1554 1557 1559 1561
1548 1547 1553 1561 1567 1566 1570 1579 1581 1580 1578 1576 1574 1571 1568 1566 1564 1561 1557 1554 1551 1548 1545 1542 1539 1537 1534 1532 1531 1530 1529 1528 1528 1528 1529 1531 1533 1535 1537 1538 1540 1542 1544 1546 1548 1551 1553 1556 1558
1551 1551 1556 1565 1570 1571 1575 1579 1580 1580 1578 1576 1574 1571 1569 1566 1563 1560 1556 1553 1549 1546 1543 1540 1537 1534 1531 1529 1527 1525 1524 1523 1523 1523 1524 1525 1528 1530 1532 1533 1535 1537 1539 1542 1544 1547 1549 1552 1555
1553 1554 1560 1569 1571 1571 1576 1578 1579 1580 1579 1578 1575 1572 1569 1566 1562 1559 1555 1551 1547 1544 1541 1538 1535 1532 1528 1526 1523 1521 1519 1518 1518 1518 1519 1520 1522 1524 1526 1528 1530 1532 1534 1536 1539 1542 1544 1547 1550
1557 1558 1561 1567 1573 1572 1573 1578 1577 1578 1578 1578 1576 1573 1570 1566 1562 1558 1554 1550 1546 1542 1538 1535 1532 1529 1526 1523 1520 1518 1516 1514 1514 1514 1514 1514 1516 1518 1520 1522 1524 1526 1529 1531 1533 1536 1538 1542 1545
1561 1565 1565 1567 1566 1569 1572 1570 1576 1576 1576 1576 1575 1573 1570 1566 1562 1558 1553 1548 1544 1541 1537 1534 1531 1527 1524 1521 1518 1515 1513 1512 1510 1510 1509 1509 1510 1512 1514 1516 1519 1521 1523 1526 1528 1531 1533 1536 1539
1564 1567 1565 1564 1564 1566 1569 1567 1575 1575 1577 1576 1575 1573 1570 1567 1562 1558 1553 1548 1544 1539 1535 1532 1529 1526 1522 1519 1516 1513 1511 1509 1507 1506 1505 1505 1506 1507 1509 1512 1514 1516 1518 1521 1523 1525 1528 1530 1533
1567 1566 1565 1563 1561 1568 1575 1572 1581 1580 1581 1578 1576 1574 1571 1567 1563 1558 1553 1548 1543 1539 1535 1531 1528 1524 1521 1518 1515 1512 1510 1507 1505 1504 1503 1502 1503 1504 1505 1507 1509 1511 1514 1516 1519 1521 1523 1525 1528
1564 1562 1562 1562 1563 1571 1577 1577 1584 1583 1582 1581 1578 1575 1572 1568 1563 1559 1553 1548 1543 1539 1535 1531 1527 1524 1520 1517 1514 1511 1509 1506 1504 1503 1502 1501 1501 1502 1503 1504 1506 1507 1510 1512 1514 1516 1518 1520 1522
1566 1562 1562 1561 1561 1573 1577 1579 1583 1583 1583 1581 1578 1575 1572 1569 1564 1560 1555 1550 1545 1540 1536 1532 1528 1524 1521 1518 1514 1512 1509 1506 1504 1503 1502 1501 1501 1501 1501 1502 1503 1504 1506 1508 1510 1512 1514 1516 1518
1564 1564 1566 1562 1565 1569 1574 1579 1581 1581 1581 1580 1578 1575 1572 1569 1566 1561 1557 1552 1547 1543 1538 1534 1530 1526 1522 1519 1516 1512 1510 1507 1505 1504 1503 1502 1501 1501 1501 1501 1502 1503 1503 1505 1507 1508 1510 1512 1514
1570 1569 1564 1563 1566 1567 1576 1579 1581 1580 1580 1579 1577 1576 1573 1570 1567 1563 1559 1554 1550 1546 1541 1537 1532 1528 1524 1521 1517 1514 1511 1509 1507 1506 1504 1503 1503 1502 1502 1502 1502 1502 1503 1503 1505 1506 1507 1509 1510
1572 1571 1569 1567 1568 1568 1576 1583 1580 1581 1581 1580 1578 1576 1574 1571 1568 1564 1560 1556 1552 1548 1544 1539 1535 1531 1527 1523 1520 1517 1514 1511 1509 1507 1506 1505 1504 1504 1504 1503 1503 1503 1503 1503 1503 1504 1506 1507 1508
1574 1574 1571 1568 1572 1572 1574 1583 1580 1581 1582 1581 1579 1577 1575 1572 1569 1565 1562 1558 1554 1550 1546 1542 1538 1534 1530 1526 1523 1520 1517 1514 1512 1510 1508 1507 1506 1505 1505 1504 1504 1503 1503 1503 1503 1504 1505 1506 1507